VIR104L KATL-EGLL

Flight info

Callsign VIR104L
Flight time N/A
Altitude 37000
Route SMKEY2 BOBBD Q71 PSB J49 ALB/N0494F360 DCT PONCT/N0488F370 DCT MOBAL DCT BAREE N699A NEEKO/M084F390 NATV NETKI/N0479F390 DCT BOFUM Q37 MALUD Q38 NUGRA
Aircraft A35K/H-SDE2E3GHIJ3J4J5LM1ORWXY/LB1D1

Departure

Time 2026-05-07 03:07
Airport Hartsfield Jackson Atlanta International Airport (KATL)

Arrival

Time N/A
Airport London Heathrow Airport (EGLL)
Time Latitude Longitude Altitude Speed Heading
2026-05-07 02:18 33.63799 -84.42055 1012 ft 0 kts 89°
2026-05-07 02:51 33.63799 -84.42056 1012 ft 1 kts 89°
2026-05-07 02:51 33.63799 -84.42059 1012 ft 2 kts 89°
2026-05-07 02:52 33.63799 -84.42078 1012 ft 3 kts 89°
2026-05-07 02:52 33.63799 -84.42098 1012 ft 2 kts 90°
2026-05-07 02:52 33.63800 -84.42118 1012 ft 3 kts 108°
2026-05-07 02:52 33.63805 -84.42134 1012 ft 3 kts 136°
2026-05-07 02:53 33.63815 -84.42143 1012 ft 4 kts 167°
2026-05-07 02:53 33.63833 -84.42146 1012 ft 4 kts 180°
2026-05-07 02:53 33.63853 -84.42146 1012 ft 4 kts 181°
2026-05-07 02:53 33.63858 -84.42145 1012 ft 4 kts 180°
2026-05-07 02:58 33.63843 -84.42145 1012 ft 4 kts 180°
2026-05-07 02:59 33.63810 -84.42146 1012 ft 5 kts 180°
2026-05-07 02:59 33.63779 -84.42146 1005 ft 4 kts 180°
2026-05-07 02:59 33.63749 -84.42146 1012 ft 5 kts 180°
2026-05-07 02:59 33.63698 -84.42142 1013 ft 7 kts 168°
2026-05-07 03:00 33.63667 -84.42108 1013 ft 7 kts 118°
2026-05-07 03:00 33.63656 -84.42030 1012 ft 11 kts 91°
2026-05-07 03:00 33.63656 -84.41931 1012 ft 12 kts 90°
2026-05-07 03:00 33.63656 -84.41814 1012 ft 18 kts 90°
2026-05-07 03:01 33.63656 -84.41634 1012 ft 23 kts 90°
2026-05-07 03:01 33.63656 -84.41427 1012 ft 26 kts 90°
2026-05-07 03:01 33.63655 -84.41208 1012 ft 26 kts 90°
2026-05-07 03:01 33.63655 -84.41017 1012 ft 19 kts 90°
2026-05-07 03:02 33.63642 -84.40930 1012 ft 8 kts 126°
2026-05-07 03:02 33.63596 -84.40910 1012 ft 5 kts 176°
2026-05-07 03:02 33.63592 -84.40910 1012 ft 0 kts 178°
2026-05-07 03:05 33.63578 -84.40909 1012 ft 3 kts 177°
2026-05-07 03:05 33.63545 -84.40908 1012 ft 6 kts 179°
2026-05-07 03:05 33.63500 -84.40923 1013 ft 8 kts 213°
2026-05-07 03:05 33.63473 -84.40981 1013 ft 9 kts 255°
2026-05-07 03:06 33.63469 -84.41063 1012 ft 17 kts 269°
2026-05-07 03:06 33.63466 -84.41496 1012 ft 88 kts 270°
2026-05-07 03:06 33.63465 -84.42510 1013 ft 153 kts 269°
2026-05-07 03:06 33.63469 -84.43997 1220 ft 194 kts 265°
2026-05-07 03:07 33.63428 -84.45669 2013 ft 204 kts 263°
2026-05-07 03:07 33.63369 -84.47402 2893 ft 218 kts 261°
2026-05-07 03:07 33.63287 -84.49272 3641 ft 229 kts 258°
2026-05-07 03:07 33.63155 -84.51176 4372 ft 227 kts 259°
2026-05-07 03:08 33.62959 -84.52985 4803 ft 212 kts 253°
2026-05-07 03:08 33.62748 -84.54771 4900 ft 220 kts 256°
2026-05-07 03:08 33.62589 -84.56628 4979 ft 227 kts 258°
2026-05-07 03:08 33.62441 -84.58549 5053 ft 235 kts 258°
2026-05-07 03:09 33.62292 -84.60521 5144 ft 240 kts 259°
2026-05-07 03:09 33.62317 -84.62560 5187 ft 250 kts 272°
2026-05-07 03:09 33.62751 -84.64613 5366 ft 256 kts 279°
2026-05-07 03:09 33.63529 -84.66592 5800 ft 274 kts 300°
2026-05-07 03:10 33.65003 -84.68067 6836 ft 282 kts 327°
2026-05-07 03:10 33.66945 -84.68583 7847 ft 296 kts 354°
2026-05-07 03:10 33.68982 -84.67946 8767 ft 313 kts 24°
2026-05-07 03:10 33.70803 -84.66486 9786 ft 316 kts 32°
2026-05-07 03:11 33.72595 -84.64930 10618 ft 320 kts 31°
2026-05-07 03:11 33.74440 -84.63393 11403 ft 324 kts 29°
2026-05-07 03:11 33.76320 -84.61889 12295 ft 326 kts 28°
2026-05-07 03:11 33.78209 -84.60416 13102 ft 331 kts 27°
2026-05-07 03:12 33.80161 -84.58912 13935 ft 334 kts 27°
2026-05-07 03:12 33.82144 -84.57411 14619 ft 341 kts 24°
2026-05-07 03:12 33.84259 -84.55984 15054 ft 355 kts 22°
2026-05-07 03:12 33.86459 -84.54556 15637 ft 364 kts 21°
2026-05-07 03:13 33.88716 -84.53082 16214 ft 375 kts 21°
2026-05-07 03:13 33.91056 -84.51545 16576 ft 391 kts 22°
2026-05-07 03:13 33.93473 -84.49944 17060 ft 401 kts 22°
2026-05-07 03:13 33.95935 -84.48303 17698 ft 407 kts 22°
2026-05-07 03:14 33.98430 -84.46635 18366 ft 412 kts 21°
2026-05-07 03:14 34.00955 -84.44947 18954 ft 417 kts 21°
2026-05-07 03:14 34.06079 -84.41521 20161 ft 427 kts 21°
2026-05-07 03:15 34.08693 -84.39772 20750 ft 431 kts 21°
2026-05-07 03:15 34.11327 -84.38009 21358 ft 436 kts 21°
2026-05-07 03:15 34.13997 -84.36220 21977 ft 440 kts 21°
2026-05-07 03:15 34.16683 -84.34419 22601 ft 445 kts 20°
2026-05-07 03:16 34.19404 -84.32593 23242 ft 449 kts 20°
2026-05-07 03:16 34.22153 -84.30748 23813 ft 454 kts 20°
2026-05-07 03:16 34.24935 -84.28881 24318 ft 459 kts 20°
2026-05-07 03:16 34.27761 -84.27086 24829 ft 458 kts 16°
2026-05-07 03:17 34.30732 -84.25822 25341 ft 450 kts
2026-05-07 03:17 34.33792 -84.25023 25855 ft 450 kts
2026-05-07 03:17 34.36874 -84.24318 26331 ft 455 kts
2026-05-07 03:17 34.40013 -84.23603 26842 ft 459 kts
2026-05-07 03:18 34.43176 -84.22875 27332 ft 464 kts
2026-05-07 03:18 34.46360 -84.22136 27826 ft 468 kts
2026-05-07 03:18 34.49569 -84.21387 28310 ft 473 kts
2026-05-07 03:18 34.52818 -84.20626 28771 ft 477 kts
2026-05-07 03:19 34.56091 -84.19859 29229 ft 481 kts
2026-05-07 03:19 34.59396 -84.19081 29707 ft 486 kts
2026-05-07 03:19 34.62728 -84.18297 30133 ft 490 kts
2026-05-07 03:19 34.66095 -84.17505 30481 ft 495 kts
2026-05-07 03:20 34.69469 -84.16709 30884 ft 498 kts
2026-05-07 03:20 34.72901 -84.15899 31235 ft 503 kts
2026-05-07 03:20 34.76346 -84.15086 31601 ft 507 kts
2026-05-07 03:20 34.79825 -84.14207 31955 ft 514 kts
2026-05-07 03:21 34.83282 -84.13231 32284 ft 519 kts
2026-05-07 03:21 34.86852 -84.12213 32629 ft 523 kts
2026-05-07 03:21 34.90361 -84.11220 32938 ft 527 kts
2026-05-07 03:21 34.93951 -84.10212 33228 ft 531 kts
2026-05-07 03:22 34.97564 -84.09201 33514 ft 535 kts
2026-05-07 03:22 35.01215 -84.08182 33768 ft 540 kts
2026-05-07 03:22 35.04889 -84.07156 34035 ft 543 kts
2026-05-07 03:22 35.08585 -84.06122 34324 ft 546 kts
2026-05-07 03:23 35.12285 -84.05086 34678 ft 546 kts
2026-05-07 03:23 35.15987 -84.04046 35116 ft 544 kts
2026-05-07 03:23 35.19663 -84.03014 35570 ft 542 kts
2026-05-07 03:23 35.23335 -84.01984 36008 ft 540 kts 360°
2026-05-07 03:24 35.27000 -84.00955 36459 ft 538 kts 359°
2026-05-07 03:24 35.30642 -83.99931 36864 ft 537 kts 359°
2026-05-07 03:24 35.34301 -83.98909 37003 ft 541 kts 359°
2026-05-07 03:25 35.41722 -83.96835 36991 ft 552 kts 360°
2026-05-07 03:25 35.49248 -83.94714 36970 ft 556 kts 359°
2026-05-07 03:26 35.56788 -83.92579 36958 ft 557 kts 359°
2026-05-07 03:26 35.64339 -83.90438 36967 ft 557 kts 359°
2026-05-07 03:27 35.71892 -83.88295 36973 ft 557 kts 359°
2026-05-07 03:27 35.79430 -83.85935 36967 ft 571 kts
2026-05-07 03:27 35.83120 -83.83923 36976 ft 585 kts 14°
2026-05-07 03:28 35.86754 -83.81616 36991 ft 590 kts 17°
2026-05-07 03:28 35.93940 -83.76666 36994 ft 593 kts 18°
2026-05-07 03:29 36.01107 -83.71613 36986 ft 593 kts 18°
2026-05-07 03:29 36.08228 -83.66651 36977 ft 592 kts 18°
2026-05-07 03:30 36.15441 -83.61671 36993 ft 592 kts 17°
2026-05-07 03:30 36.22622 -83.56716 37006 ft 592 kts 17°
2026-05-07 03:31 36.29818 -83.51737 37006 ft 592 kts 17°
2026-05-07 03:31 36.37005 -83.46748 36993 ft 592 kts 17°
2026-05-07 03:32 36.44190 -83.41748 36987 ft 592 kts 17°
2026-05-07 03:32 36.51374 -83.36739 36980 ft 593 kts 17°
2026-05-07 03:33 36.58569 -83.31712 36977 ft 593 kts 18°
2026-05-07 03:33 36.65767 -83.26669 36978 ft 593 kts 17°
2026-05-07 03:34 36.72870 -83.21664 36969 ft 574 kts 17°
2026-05-07 03:34 36.76304 -83.19221 36970 ft 559 kts 17°
2026-05-07 03:34 36.79646 -83.16846 36975 ft 544 kts 16°
2026-05-07 03:35 36.86292 -83.12191 36989 ft 555 kts 16°
2026-05-07 03:35 36.92981 -83.07351 36975 ft 561 kts 23°
2026-05-07 03:35 36.95998 -83.04264 36974 ft 564 kts 34°
2026-05-07 03:36 36.98656 -83.00608 36984 ft 567 kts 40°
2026-05-07 03:36 37.03610 -82.92931 36985 ft 579 kts 43°
2026-05-07 03:37 37.08597 -82.84822 37002 ft 597 kts 44°
2026-05-07 03:37 37.13638 -82.76418 36998 ft 607 kts 46°
2026-05-07 03:38 37.18650 -82.67889 37001 ft 606 kts 46°
2026-05-07 03:38 37.23658 -82.59402 36999 ft 605 kts 45°
2026-05-07 03:39 37.28692 -82.50915 36999 ft 606 kts 45°
2026-05-07 03:39 37.33728 -82.42428 37009 ft 606 kts 45°
2026-05-07 03:40 37.38753 -82.33929 37012 ft 606 kts 45°
2026-05-07 03:40 37.43784 -82.25396 37009 ft 606 kts 45°
2026-05-07 03:41 37.48835 -82.16907 37003 ft 602 kts 41°
2026-05-07 03:41 37.51717 -82.13191 36997 ft 584 kts 29°
2026-05-07 03:41 37.54839 -82.10089 37004 ft 564 kts 24°
2026-05-07 03:42 37.61286 -82.04409 36996 ft 568 kts 21°
2026-05-07 03:42 37.67888 -81.98876 37002 ft 571 kts 20°
2026-05-07 03:43 37.74487 -81.93279 37006 ft 571 kts 21°
2026-05-07 03:43 37.81061 -81.87623 37004 ft 572 kts 21°
2026-05-07 03:44 37.87591 -81.81971 37006 ft 573 kts 21°
2026-05-07 03:44 37.94155 -81.76277 36999 ft 572 kts 21°
2026-05-07 03:45 38.00727 -81.70567 37002 ft 572 kts 21°
2026-05-07 03:45 38.07289 -81.64856 37004 ft 572 kts 21°
2026-05-07 03:46 38.13850 -81.59136 37011 ft 572 kts 21°
2026-05-07 03:46 38.20408 -81.53404 37008 ft 572 kts 21°
2026-05-07 03:47 38.26958 -81.47664 37020 ft 571 kts 21°
2026-05-07 03:47 38.33493 -81.41934 37020 ft 571 kts 21°
2026-05-07 03:48 38.40028 -81.36178 37013 ft 570 kts 21°
2026-05-07 03:48 38.46482 -81.30488 37018 ft 560 kts 20°
2026-05-07 03:49 38.52950 -81.24826 37001 ft 571 kts 21°
2026-05-07 03:49 38.59475 -81.19021 36994 ft 571 kts 21°
2026-05-07 03:50 38.65996 -81.13201 36992 ft 572 kts 21°
2026-05-07 03:50 38.72514 -81.07391 36993 ft 572 kts 21°
2026-05-07 03:51 38.79056 -81.01557 36996 ft 573 kts 21°
2026-05-07 03:51 38.85609 -80.95702 36989 ft 574 kts 21°
2026-05-07 03:52 38.91054 -80.90823 36987 ft 574 kts 21°
2026-05-07 03:52 38.97611 -80.84938 36983 ft 575 kts 21°
2026-05-07 03:52 39.00861 -80.81764 36982 ft 590 kts 29°
2026-05-07 03:53 39.03791 -80.78071 36986 ft 600 kts 34°
2026-05-07 03:53 39.09499 -80.70154 36983 ft 605 kts 37°
2026-05-07 03:54 39.15086 -80.62024 36984 ft 607 kts 38°
2026-05-07 03:54 39.20669 -80.53867 36989 ft 606 kts 37°
2026-05-07 03:55 39.26265 -80.45741 37000 ft 606 kts 37°
2026-05-07 03:55 39.31878 -80.37607 37008 ft 606 kts 37°
2026-05-07 03:56 39.37488 -80.29462 37012 ft 606 kts 37°
2026-05-07 03:56 39.43084 -80.21307 37007 ft 606 kts 37°
2026-05-07 03:57 39.48676 -80.13135 37002 ft 606 kts 37°
2026-05-07 03:57 39.54268 -80.04946 37005 ft 606 kts 37°
2026-05-07 03:58 39.59848 -79.96757 37009 ft 606 kts 37°
2026-05-07 03:58 39.65417 -79.88553 37011 ft 606 kts 37°
2026-05-07 03:59 39.70978 -79.80343 37010 ft 605 kts 38°
2026-05-07 03:59 39.76539 -79.72115 37006 ft 605 kts 38°
2026-05-07 04:00 39.82082 -79.63888 37010 ft 604 kts 38°
2026-05-07 04:00 39.87622 -79.55650 37012 ft 605 kts 38°
2026-05-07 04:01 39.93157 -79.47399 37001 ft 605 kts 38°
2026-05-07 04:01 39.98689 -79.39126 36996 ft 605 kts 38°
2026-05-07 04:02 40.04174 -79.30899 37000 ft 605 kts 38°
2026-05-07 04:02 40.09682 -79.22614 37005 ft 604 kts 38°
2026-05-07 04:03 40.15184 -79.14323 36994 ft 604 kts 38°
2026-05-07 04:03 40.20726 -79.06091 36975 ft 602 kts 37°
2026-05-07 04:04 40.26276 -78.97912 36977 ft 600 kts 37°
2026-05-07 04:04 40.31806 -78.89729 36978 ft 599 kts 37°
2026-05-07 04:05 40.37316 -78.81535 36972 ft 599 kts 38°
2026-05-07 04:05 40.42813 -78.73328 36974 ft 597 kts 38°
2026-05-07 04:06 40.48286 -78.65134 36969 ft 597 kts 38°
2026-05-07 04:06 40.53744 -78.56943 36975 ft 595 kts 38°
2026-05-07 04:07 40.59196 -78.48738 36984 ft 595 kts 38°
2026-05-07 04:07 40.64631 -78.40537 36971 ft 594 kts 38°
2026-05-07 04:08 40.70053 -78.32336 36984 ft 594 kts 38°
2026-05-07 04:08 40.86044 -78.08018 36982 ft 592 kts 38°
2026-05-07 04:08 40.95881 -77.90187 36978 ft 607 kts 51°
2026-05-07 04:09 41.04404 -77.70943 36980 ft 607 kts 52°
2026-05-07 04:09 41.21396 -77.32321 36952 ft 604 kts 52°
2026-05-07 04:10 41.38235 -76.93655 36935 ft 604 kts 52°
2026-05-07 04:10 41.54890 -76.54918 36951 ft 601 kts 53°
2026-05-07 04:11 41.71390 -76.16013 36947 ft 600 kts 53°
2026-05-07 04:11 41.87676 -75.77082 36944 ft 598 kts 54°
2026-05-07 04:12 42.03791 -75.38066 36950 ft 596 kts 54°
2026-05-07 04:12 42.21125 -74.99794 36946 ft 609 kts 51°
2026-05-07 04:13 42.38897 -74.60783 36940 ft 608 kts 51°
2026-05-07 04:13 42.49248 -74.37842 36937 ft 607 kts 52°
2026-05-07 04:14 42.53634 -74.28061 36932 ft 606 kts 52°
2026-05-07 04:14 42.57997 -74.18303 36929 ft 605 kts 52°
2026-05-07 04:15 42.62349 -74.08536 36919 ft 604 kts 52°
2026-05-07 04:15 42.66690 -73.98769 36915 ft 604 kts 52°
2026-05-07 04:16 42.71020 -73.88990 36909 ft 603 kts 52°
2026-05-07 04:16 42.75236 -73.79116 36901 ft 608 kts 61°
2026-05-07 04:16 42.76620 -73.73665 36904 ft 614 kts 75°
2026-05-07 04:17 42.77175 -73.67911 36905 ft 613 kts 90°
2026-05-07 04:17 42.77740 -73.56389 36900 ft 610 kts 74°
2026-05-07 04:17 42.79133 -73.50980 36897 ft 602 kts 59°
2026-05-07 04:18 42.81260 -73.46248 36880 ft 587 kts 44°
2026-05-07 04:18 42.84073 -73.42276 36881 ft 565 kts 28°
2026-05-07 04:18 42.87236 -73.39459 36885 ft 539 kts 13°
2026-05-07 04:18 42.90703 -73.37763 36883 ft 508 kts 358°
2026-05-07 04:19 42.94059 -73.37321 36883 ft 476 kts 342°
2026-05-07 04:19 42.97201 -73.38043 36886 ft 443 kts 327°
2026-05-07 04:19 42.99968 -73.39653 36889 ft 427 kts 319°
2026-05-07 04:20 43.05482 -73.42929 36895 ft 443 kts 326°
2026-05-07 04:20 43.08508 -73.44065 36901 ft 460 kts 334°
2026-05-07 04:20 43.11748 -73.44610 36900 ft 480 kts 343°
2026-05-07 04:21 43.18645 -73.43237 36902 ft 526 kts
2026-05-07 04:21 43.22073 -73.41360 36905 ft 538 kts 12°
2026-05-07 04:21 43.28815 -73.36679 36900 ft 546 kts 17°
2026-05-07 04:22 43.35500 -73.31717 36901 ft 545 kts 17°
2026-05-07 04:22 43.42201 -73.26855 36895 ft 544 kts 16°
2026-05-07 04:23 43.48922 -73.22081 36893 ft 543 kts 16°
2026-05-07 04:23 43.55599 -73.17360 36882 ft 542 kts 16°
2026-05-07 04:24 43.62354 -73.12572 36886 ft 542 kts 17°
2026-05-07 04:24 43.69053 -73.07805 36888 ft 542 kts 17°
2026-05-07 04:25 43.75706 -73.03057 36900 ft 542 kts 17°
2026-05-07 04:25 43.82398 -72.98269 36906 ft 541 kts 17°
2026-05-07 04:26 43.89086 -72.93471 36913 ft 541 kts 17°
2026-05-07 04:26 43.95763 -72.88670 36908 ft 541 kts 18°
2026-05-07 04:27 44.02433 -72.83860 36907 ft 540 kts 18°
2026-05-07 04:27 44.09102 -72.79041 36889 ft 539 kts 18°
2026-05-07 04:28 44.15749 -72.74222 36886 ft 539 kts 19°
2026-05-07 04:28 44.22394 -72.69393 36892 ft 539 kts 19°
2026-05-07 04:29 44.29047 -72.64546 36893 ft 539 kts 19°
2026-05-07 04:29 44.35679 -72.59702 36893 ft 538 kts 19°
2026-05-07 04:30 44.42264 -72.54882 36874 ft 538 kts 19°
2026-05-07 04:30 44.48891 -72.50020 36872 ft 537 kts 20°
2026-05-07 04:31 44.55490 -72.45165 36873 ft 537 kts 20°